Rochester, NY

3:06 AM EST on December 06, 2019 (GMT -0500)
Greater Rochester International

Weather History for KROC - November, 2019

Change the Weather History Date:

Tuesday, November 12, 2019

  Actual Average Record
Temperature  
Mean Temperature 21 °F 42 °F  
Max Temperature 26 °F 50 °F 72 °F (1982)
Min Temperature 16 °F 34 °F 21 °F (1983)
Degree Days  
Heating Degree Days 44 23  
Month to date heating degree days 350 255  
Since 1 July heating degree days 773 888  
Cooling Degree Days 0 0  
Month to date cooling degree days 0 0  
Year to date cooling degree days 621 539  
Moisture  
Dew Point 15 °F    
Average Humidity 78    
Maximum Humidity 93    
Minimum Humidity 51    
Precipitation  
Precipitation 0.44 in 0.09 in 1.46 in (1879)
Month to date precipitation 1.43 1.13  
Year to date precipitation 30.13 29.83  
Snow  
Snow 5.80 in 0.20 in 5.00 in (1977)
Month to date snowfall 14.6 1.7  
Since 1 July snowfall 14.6 1.8  
Since 1 September snowfall 14.6 1.8  
Snow Depth 9.0 in    
Sea Level Pressure  
Sea Level Pressure 30.12 in    
Wind  
Wind Speed 11 mph ()    
Max Wind Speed 23 mph    
Max Gust Speed 27 mph    
Visibility 4.1 miles    
Events Fog , Snow    
T = Trace of Precipitation, MM = Missing Value Source: Averaged Metar Reports

Daily Weather History Graph

Daily Weather History Graph

Search for Another Location

Airport or City:

Astronomy

Nov. 12, 2019 Rise Set
Actual Time 6:59 AM EST 4:49 PM EST
Civil Twilight 6:28 AM EST 5:20 PM EST
Nautical Twilight 5:54 AM EST 5:54 PM EST
Astronomical Twilight 5:21 AM EST 6:27 PM EST
Moon 5:16 PM EST (11/12) 6:47 AM EST (11/12)
Length of Visible Light 10h 51m
Length of Day
9h 50m
Full, 100% of the Moon is Illuminated
Nov 12
Full
Nov 19
Last Quarter
Nov 26
New
Dec 4
First Quarter
Dec 12
Full

Hourly Weather History & Observations

Time (EST) Temp. Windchill Dew Point Humidity Pressure Visibility Wind Dir Wind Speed Gust Speed Precip Events Conditions
12:16 AM 25.0 °F 10.9 °F 23.0 °F 92% 29.94 in 1.0 mi NNE 19.6 mph - 0.01 in Snow Light Snow
12:54 AM 25.0 °F 14.2 °F 23.0 °F 92% 29.97 in 0.8 mi NNE 11.5 mph - 0.03 in Snow Light Snow
1:44 AM 25.0 °F 13.1 °F 23.0 °F 92% 29.93 in 0.8 mi NNE 13.8 mph - 0.05 in Snow Light Snow
1:50 AM 24.8 °F 12.9 °F 23.0 °F 93% 29.93 in 1.0 mi North 13.8 mph - 0.06 in Snow Light Snow
1:51 AM 25.0 °F 14.2 °F 23.0 °F 92% 29.97 in 1.0 mi NNE 11.5 mph - 0.06 in Snow Light Snow
2:32 AM 26.1 °F 15.0 °F 23.0 °F 88% 29.94 in 1.0 mi North 12.7 mph - 0.02 in Snow Light Snow
2:54 AM 25.0 °F 14.2 °F 23.0 °F 92% 29.98 in 0.8 mi North 11.5 mph - 0.03 in Snow Light Snow
3:54 AM 24.1 °F 14.4 °F 21.9 °F 91% 30.00 in 0.8 mi North 9.2 mph - 0.03 in Snow Light Snow
4:54 AM 24.1 °F 14.4 °F 21.0 °F 88% 30.01 in 2.0 mi North 9.2 mph - 0.03 in Snow Light Snow
5:16 AM 24.1 °F 13.1 °F 21.0 °F 88% 29.98 in 4.0 mi North 11.5 mph - 0.01 in Snow Light Snow
5:54 AM 24.1 °F 13.7 °F 19.9 °F 84% 30.03 in 9.0 mi NNW 10.4 mph - 0.01 in Snow Light Snow
6:52 AM 23.0 °F 13.9 °F 19.4 °F 86% 30.02 in 3.0 mi NW 8.1 mph - 0.00 in Snow Light Snow
6:54 AM 23.0 °F 14.7 °F 19.0 °F 85% 30.06 in 3.0 mi NNW 6.9 mph - 0.00 in Snow Light Snow
7:12 AM 23.0 °F 14.7 °F 19.0 °F 85% 30.03 in 1.5 mi NNW 6.9 mph - 0.00 in Snow Light Snow
7:54 AM 23.0 °F 14.7 °F 19.9 °F 88% 30.09 in 1.2 mi NW 6.9 mph - 0.00 in Snow Light Snow
8:54 AM 23.0 °F 13.1 °F 19.0 °F 85% 30.11 in 1.2 mi NNW 9.2 mph - 0.01 in Snow Light Snow
9:09 AM 23.0 °F 11.1 °F 18.0 °F 81% 30.07 in 2.0 mi NW 12.7 mph - 0.00 in Snow Light Snow
9:20 AM 23.0 °F 13.1 °F 18.0 °F 81% 30.08 in 3.0 mi WNW 9.2 mph - 0.00 in Snow Light Snow
9:54 AM 23.0 °F 12.4 °F 17.1 °F 78% 30.12 in 5.0 mi NW 10.4 mph - 0.00 in Snow Light Snow
10:07 AM 24.1 °F 12.0 °F 18.0 °F 77% 30.09 in 1.5 mi NW 13.8 mph 20.7 mph 0.00 in Snow Light Snow
10:16 AM 23.0 °F 9.6 °F 18.0 °F 81% 30.09 in 3.0 mi NW 16.1 mph 23.0 mph 0.00 in Snow Light Snow
10:41 AM 23.0 °F 11.7 °F 17.1 °F 78% 30.10 in 2.0 mi NNW 11.5 mph - 0.00 in Snow Light Snow
10:54 AM 23.0 °F 11.7 °F 17.1 °F 78% 30.13 in 3.0 mi NW 11.5 mph 19.6 mph 0.00 in Snow Light Snow
11:54 AM 23.0 °F 8.3 °F 12.0 °F 63% 30.14 in 9.0 mi NNW 19.6 mph - 0.00 in Snow Light Snow
12:34 PM 24.1 °F 9.4 °F 10.0 °F 55% 30.11 in 9.0 mi NNW 20.7 mph 24.2 mph 0.00 in   Mostly Cloudy
12:54 PM 24.1 °F 10.1 °F 9.0 °F 53% 30.15 in 10.0 mi NW 18.4 mph 24.2 mph 0.00 in   Mostly Cloudy
1:54 PM 21.9 °F 9.8 °F 9.0 °F 58% 30.17 in 9.0 mi NW 12.7 mph - 0.00 in   Mostly Cloudy
2:54 PM 21.9 °F 9.2 °F 7.0 °F 53% 30.19 in 10.0 mi NW 13.8 mph 24.2 mph N/A   Scattered Clouds
3:54 PM 21.9 °F 10.4 °F 6.1 °F 51% 30.19 in 10.0 mi WNW 11.5 mph - N/A   Partly Cloudy
4:51 PM 19.4 °F 6.6 °F 10.4 °F 68% 30.17 in 0.8 mi WNW 12.7 mph - 0.00 in Snow Light Snow
4:54 PM 19.9 °F 7.9 °F 12.0 °F 71% 30.21 in 0.5 mi WNW 11.5 mph - 0.00 in Snow Snow
5:17 PM 19.0 °F 7.5 °F 15.1 °F 85% 30.18 in 0.5 mi WNW 10.4 mph - 0.00 in Fog , Snow Snow
5:29 PM 19.0 °F 8.2 °F 15.1 °F 85% 30.18 in 1.0 mi WNW 9.2 mph - 0.01 in Snow Light Snow
5:49 PM 19.4 °F 7.9 °F 15.8 °F 86% 30.18 in 4.0 mi West 10.4 mph - 0.01 in Snow Light Snow
5:54 PM 19.0 °F 6.8 °F 15.1 °F 85% 30.22 in 10.0 mi West 11.5 mph - 0.01 in Snow Light Snow
5:59 PM 19.0 °F 8.2 °F 14.0 °F 81% 30.18 in 10.0 mi West 9.2 mph - 0.00 in Snow Light Snow
6:21 PM 19.0 °F 7.5 °F 10.9 °F 71% 30.18 in 10.0 mi West 10.4 mph - 0.00 in   Mostly Cloudy
6:54 PM 18.0 °F 7.7 °F 12.0 °F 78% 30.22 in 10.0 mi West 8.1 mph - 0.00 in   Mostly Cloudy
7:54 PM 18.0 °F 5.4 °F 7.0 °F 62% 30.23 in 10.0 mi West 11.5 mph - 0.01 in   Mostly Cloudy
8:54 PM 19.0 °F 6.1 °F 6.1 °F 57% 30.25 in 7.0 mi West 12.7 mph - 0.00 in Snow Light Snow
9:00 PM 19.0 °F 6.8 °F 7.0 °F 59% 30.21 in 3.0 mi West 11.5 mph - 0.00 in Snow Light Snow
9:13 PM 19.0 °F 6.1 °F 6.1 °F 57% 30.21 in 8.0 mi West 12.7 mph - 0.00 in Snow Light Snow
9:54 PM 18.0 °F 6.1 °F 6.1 °F 60% 30.25 in 9.0 mi West 10.4 mph - 0.00 in Snow Light Snow
10:22 PM 17.1 °F 3.0 °F 10.9 °F 77% 30.21 in 1.5 mi West 13.8 mph - 0.00 in Snow Light Snow
10:28 PM 17.1 °F 3.6 °F 12.0 °F 81% 30.21 in 0.8 mi West 12.7 mph - 0.01 in Snow Light Snow
10:54 PM 17.1 °F 3.0 °F 12.9 °F 84% 30.26 in 0.5 mi West 13.8 mph - 0.01 in Fog , Snow Snow
11:11 PM 17.1 °F 5.0 °F 14.0 °F 88% 30.22 in 0.5 mi West 10.4 mph - 0.01 in Fog , Snow Snow
11:54 PM 17.1 °F 5.8 °F 14.0 °F 88% 30.27 in 0.5 mi West 9.2 mph - 0.02 in Fog , Snow Snow